Wind_Speed
43 45 46 47 47 47 49 52 56 58 59 61 63 68 71 71 70 68 66 63 61 63 65 65 65 65 64 62 59 57 56 55 56 56 56 58 60 58 55 53 52 51 51 53 55 55 55 55 55 57 57 52 49 44 35 31 33 32 29 28 28 29 28 29 30 30 29 29 30 31 32 31 28 26 25 22 19 17 16 16 16 16 16 15 15 15
41 44 45 44 44 46 47 50 54 57 59 60 62 65 69 71 71 70 67 64 62 64 65 64 64 64 63 61 59 58 58 56 55 56 55 57 59 61 62 61 59 58 57 59 60 61 60 58 57 57 56 53 49 42 34 30 30 28 27 26 28 28 27 29 30 29 29 30 31 32 32 31 28 26 24 21 18 16 16 16 16 16 15 15 16 17
41 41 38 38 41 45 48 50 54 57 59 61 63 64 67 70 71 70 69 66 63 64 65 63 64 64 62 61 59 58 58 55 55 55 54 55 57 59 62 62 63 63 62 62 61 60 59 58 57 56 53 49 44 38 33 29 27 25 24 24 27 27 27 29 29 29 30 31 32 33 32 30 27 25 22 19 18 16 16 16 16 15 15 16 17 18
43 38 35 37 40 43 48 50 53 56 59 61 63 65 67 68 69 70 68 66 65 66 65 63 63 63 61 61 59 58 57 55 54 53 53 54 55 56 57 57 58 60 60 60 59 58 57 56 57 54 48 43 39 35 32 28 24 23 22 23 26 27 27 28 29 29 30 31 32 32 30 28 26 23 20 18 17 16 16 16 16 16 16 17 18 18
43 39 39 42 42 43 47 51 53 55 58 60 62 64 65 64 66 68 66 65 67 67 66 63 62 63 61 61 60 58 57 56 54 53 53 53 53 54 56 55 56 57 56 57 56 55 54 53 53 49 43 39 36 35 32 26 23 23 24 25 27 27 26 28 29 30 30 31 32 31 28 26 24 20 18 17 16 16 16 16 17 17 17 18 19 20
42 41 44 46 45 45 47 50 53 55 57 59 61 63 63 61 62 64 62 62 65 68 67 64 65 65 62 61 60 58 58 57 55 54 54 52 50 52 55 55 56 57 57 57 55 54 53 52 51 46 42 38 34 33 30 26 24 25 27 28 27 27 27 29 29 29 29 30 30 29 27 24 21 18 17 16 15 15 16 16 17 17 18 20 20 21
42 42 46 48 47 48 49 51 52 54 57 59 60 60 61 60 59 60 59 60 65 68 66 64 66 67 64 62 60 58 57 56 55 54 54 51 49 49 50 53 56 57 57 57 55 54 52 51 49 44 40 35 31 30 28 26 26 27 29 29 27 27 28 28 27 28 29 29 29 27 24 21 19 17 16 15 15 15 16 17 17 18 19 20 21 21
37 40 44 46 46 48 51 53 53 54 57 60 58 57 60 60 58 57 56 59 64 66 64 64 65 66 66 63 59 58 56 54 54 54 53 52 50 48 49 51 53 52 53 53 52 51 49 47 44 40 36 31 28 27 26 25 26 29 31 29 27 27 27 26 26 28 28 28 27 25 22 19 18 16 16 17 17 17 17 18 18 19 20 21 22 21
30 32 37 42 44 48 51 51 52 54 57 59 56 55 59 59 58 55 52 56 59 58 60 63 65 66 67 64 60 58 56 55 54 53 53 52 51 50 50 50 48 47 48 48 47 45 43 41 39 36 31 26 25 24 23 24 27 30 31 29 27 26 26 25 26 27 27 26 25 22 20 19 17 17 17 18 18 18 19 19 19 19 20 21 21 20
24 25 30 37 42 46 49 49 50 52 55 56 53 54 57 58 57 54 51 52 50 53 61 64 64 68 69 66 63 60 58 56 52 49 50 51 51 51 49 47 46 47 47 44 42 40 39 37 34 29 24 21 22 22 22 25 28 31 31 28 26 26 25 25 26 26 25 24 22 21 20 19 18 18 19 19 19 19 19 19 19 19 20 20 19 18
24 25 28 33 37 40 44 46 48 49 51 52 52 53 54 56 57 54 53 51 46 54 65 64 63 69 72 69 63 60 58 54 49 47 48 49 50 50 48 47 47 47 46 42 39 38 37 35 30 24 20 20 22 22 23 25 27 29 30 27 26 26 26 25 25 25 24 23 22 20 19 18 18 19 20 20 20 19 19 19 19 20 20 19 18 17
25 26 27 28 31 34 37 41 44 46 47 50 51 51 52 55 55 53 55 52 50 61 68 64 62 67 72 70 63 60 57 52 49 47 46 46 45 45 46 48 49 48 46 42 39 38 37 34 30 25 21 22 24 24 24 25 25 27 27 26 27 26 26 25 25 25 24 22 22 20 19 19 20 20 21 20 18 18 19 19 20 20 19 18 17 17
25 25 25 27 29 31 35 39 41 44 46 48 49 49 51 54 54 55 56 54 58 67 66 60 59 64 71 69 62 60 57 53 50 46 45 43 39 40 44 47 48 48 46 44 41 39 36 31 27 24 21 23 26 25 24 26 27 27 27 27 27 27 26 26 25 25 24 23 21 20 20 20 21 21 21 19 17 17 18 19 19 18 18 17 17 17
25 26 28 31 32 33 35 38 40 43 46 48 48 48 53 56 56 56 55 56 64 68 60 55 56 64 71 67 62 60 56 52 49 47 46 41 36 38 42 43 45 46 45 44 42 39 34 27 23 22 22 25 27 25 25 27 27 27 27 28 29 28 27 27 26 25 24 22 21 20 21 21 22 22 20 18 18 18 19 19 19 18 17 17 17 17
26 28 29 31 34 35 35 37 38 40 44 45 44 47 54 57 58 57 56 59 66 62 54 52 57 66 70 65 60 57 54 52 49 48 46 38 35 38 39 39 42 45 45 44 41 38 31 25 22 22 24 27 27 26 26 27 28 27 27 29 30 29 28 28 26 24 23 22 21 21 21 22 22 21 19 19 18 18 19 19 19 18 17 17 17 18
20 21 24 29 34 37 38 38 37 39 43 42 40 47 55 57 57 56 54 58 60 54 51 53 58 66 67 61 56 52 50 50 48 47 45 38 36 39 39 39 41 44 44 42 40 36 29 24 23 24 26 28 27 27 27 28 28 27 27 29 30 29 29 29 26 23 23 22 21 21 22 22 21 19 19 19 19 19 20 19 19 17 16 16 17 18
8 10 17 23 29 36 39 39 38 40 42 41 42 49 53 54 55 55 55 57 55 50 50 52 56 61 60 54 51 49 46 46 46 46 43 39 39 41 40 38 40 42 42 41 38 33 28 25 24 26 28 28 27 27 28 27 28 28 27 29 30 30 30 29 25 23 22 22 21 22 22 21 20 19 18 18 19 20 20 19 18 17 16 16 17 17
3 8 14 17 20 27 33 36 39 40 40 42 46 48 51 56 58 60 58 51 49 50 50 50 51 53 51 48 49 48 46 44 45 44 41 39 40 41 39 37 37 39 38 37 36 32 29 26 26 28 28 27 28 28 28 28 29 29 29 30 31 30 30 29 25 23 22 22 22 22 21 20 18 18 18 18 19 19 19 18 16 15 15 16 16 15
2 6 10 11 12 19 27 34 38 41 42 43 46 48 54 61 63 64 54 42 44 51 48 46 46 48 48 47 46 45 45 44 42 39 38 40 41 40 37 36 36 37 36 35 34 31 29 28 28 29 28 28 29 29 29 30 30 30 30 30 30 31 31 28 25 23 22 21 22 21 19 18 17 17 17 18 18 19 18 16 14 14 15 16 15 13
2 3 5 6 9 14 24 32 37 43 47 47 49 53 58 62 64 61 49 42 48 51 43 41 44 47 48 45 42 42 43 42 40 37 36 37 38 37 35 36 35 35 35 32 29 26 24 26 28 28 29 30 30 30 30 30 30 30 31 30 31 31 29 25 23 22 21 21 21 18 17 16 16 16 17 18 19 18 17 14 13 14 15 14 12 10
3 3 1 4 11 14 21 30 36 43 51 54 57 59 60 63 63 57 49 48 51 44 36 38 42 46 46 42 41 41 40 39 37 36 36 34 33 32 32 34 33 32 31 28 25 22 21 24 28 29 31 33 32 32 31 30 30 30 31 30 30 29 25 22 20 20 21 20 19 16 15 15 16 16 17 18 18 17 14 12 12 13 12 11 10 9
12 9 4 7 15 15 15 24 32 42 52 56 58 60 61 62 60 54 50 49 46 35 31 36 38 41 42 38 39 40 37 35 33 33 34 34 31 30 29 29 28 27 26 24 22 22 22 25 29 31 33 33 33 32 31 31 31 30 30 29 27 25 22 19 19 20 20 19 16 15 15 15 16 17 17 18 18 15 12 11 11 11 10 10 9 9
13 7 4 8 15 15 15 23 33 46 54 57 59 60 60 61 58 54 49 44 40 31 27 34 34 31 35 35 33 36 35 31 29 30 31 31 31 30 28 26 25 24 22 20 20 22 25 28 30 33 33 33 32 32 32 31 30 28 28 26 24 22 20 19 19 20 19 16 14 14 14 15 16 17 17 17 16 13 12 11 11 11 10 10 9 9
11 5 5 5 11 17 20 28 41 52 56 58 61 61 60 61 59 55 48 41 39 32 23 29 33 25 27 32 28 30 32 29 28 29 29 28 29 29 27 25 23 21 19 20 20 23 28 30 31 33 32 32 32 32 32 30 28 27 26 24 23 21 19 19 19 19 17 15 14 14 15 16 17 17 17 17 15 13 12 12 12 11 11 10 9 8
16 8 4 8 14 22 28 40 51 55 55 58 61 59 60 61 58 54 47 38 38 34 21 22 30 21 19 28 30 28 29 28 28 29 28 27 26 26 26 24 21 18 16 18 20 24 29 30 30 31 32 32 33 32 31 28 26 25 24 23 21 20 19 19 19 18 16 14 14 15 16 17 17 16 16 16 14 13 13 12 11 11 10 9 7 7
16 6 10 16 24 31 37 50 56 52 52 57 58 57 59 59 56 52 45 37 37 35 23 21 26 21 15 24 31 29 28 28 29 28 28 27 25 25 24 23 21 18 13 13 18 22 26 27 28 30 31 33 33 32 30 27 25 24 23 22 20 19 19 19 19 18 15 13 14 15 16 17 16 16 16 15 14 14 13 12 11 10 9 8 7 7
10 8 17 27 34 37 42 51 52 47 50 55 56 57 57 55 54 52 43 35 36 35 28 26 27 24 20 23 26 26 27 29 29 29 29 28 27 25 23 21 21 19 15 13 16 21 25 26 28 30 31 32 32 31 28 26 24 23 22 20 19 18 18 19 19 17 15 14 14 15 16 17 17 16 16 15 14 14 13 11 10 10 9 8 7 7
4 10 21 34 37 35 41 48 47 44 48 54 57 57 55 53 56 54 42 36 37 34 31 32 31 28 26 27 27 26 27 29 30 29 28 28 27 26 23 20 20 21 20 19 20 23 25 26 28 29 30 31 31 30 28 26 25 23 21 20 19 18 18 19 18 16 15 14 15 16 17 17 17 16 16 15 15 14 12 11 10 10 9 8 8 8
4 10 20 31 32 31 36 40 43 46 49 55 59 56 54 58 59 51 41 38 38 36 35 36 35 31 29 29 28 27 27 27 27 27 26 26 26 25 22 21 22 24 23 23 24 25 25 26 27 28 30 30 31 29 28 26 23 21 20 20 18 18 19 20 18 16 15 14 15 17 18 18 17 17 17 16 15 14 13 11 10 10 9 9 9 8
7 10 15 23 27 30 32 32 40 50 54 58 59 53 54 62 57 44 41 42 39 38 39 39 37 32 29 28 28 28 27 26 25 26 26 25 24 22 22 23 24 25 24 24 26 25 25 26 27 29 30 30 29 28 26 24 21 20 19 18 17 18 20 19 18 16 15 15 16 18 18 18 17 17 17 17 16 15 14 12 11 10 10 10 9 9
8 11 11 16 25 31 32 31 36 49 57 57 54 52 57 61 49 38 43 44 38 38 40 40 38 33 28 27 28 28 28 27 27 27 26 23 20 19 20 23 24 24 24 26 26 25 25 26 28 29 29 28 27 25 24 22 21 21 20 19 18 19 20 19 17 16 15 15 17 19 19 18 17 18 18 17 16 15 15 14 13 12 11 11 10 10
11 13 10 14 23 28 32 32 33 44 54 51 48 54 59 54 42 39 44 44 40 41 42 41 40 35 28 26 28 28 29 30 30 28 26 22 20 17 17 21 24 24 25 26 25 24 25 26 27 28 28 27 26 24 23 21 21 22 21 19 19 21 21 19 17 16 15 16 18 19 19 18 17 18 18 18 17 16 16 15 15 14 13 13 13 12
15 16 11 14 20 23 30 33 32 40 47 44 45 53 54 47 39 37 41 43 41 41 43 42 40 36 32 29 30 31 32 32 31 30 27 24 23 20 19 21 25 26 26 26 24 24 24 25 26 27 26 25 24 23 22 22 22 22 21 20 21 22 21 19 17 16 15 17 18 19 19 18 18 18 19 18 17 17 16 17 16 16 15 15 15 14
17 15 12 14 17 21 29 33 30 34 38 38 42 48 50 46 39 34 35 37 37 40 42 42 40 38 36 34 34 36 35 33 32 31 29 28 26 24 22 24 27 29 28 26 25 24 25 25 26 26 26 25 24 24 24 24 24 24 23 22 22 23 21 19 17 16 16 17 19 19 19 18 18 18 19 18 18 17 17 18 17 17 17 17 17 17
16 14 14 15 16 21 29 32 30 30 31 36 45 50 51 45 37 32 31 32 36 40 42 42 42 40 38 38 38 37 34 31 30 30 28 27 26 25 24 25 29 31 30 27 26 25 25 26 26 26 25 25 25 26 26 25 25 25 24 24 24 23 21 19 17 16 17 19 20 19 19 18 18 19 19 19 18 18 18 18 18 17 18 18 18 18
15 15 16 16 17 22 30 35 36 31 28 37 47 48 44 38 31 28 30 35 41 41 38 39 41 39 39 38 36 33 32 31 30 30 28 26 26 26 25 25 28 31 29 27 26 25 25 25 25 24 24 24 25 26 26 25 25 25 25 24 24 22 20 18 17 17 18 20 21 20 20 19 18 19 19 19 18 18 18 18 18 18 18 18 19 20
13 16 16 16 20 27 33 37 40 34 30 37 42 36 28 27 28 29 34 41 44 40 36 37 38 38 39 37 33 30 30 31 30 28 26 25 25 26 27 27 28 28 27 27 26 26 25 25 25 25 25 26 26 26 26 26 27 27 25 25 23 22 20 18 18 19 21 22 23 22 21 20 19 19 19 19 18 18 18 18 19 19 19 19 20 20
12 15 15 17 22 30 35 37 39 38 35 35 34 26 20 23 27 31 35 40 42 40 38 36 34 36 36 34 33 31 29 30 29 25 23 23 23 25 28 29 27 26 26 26 27 27 27 27 27 27 27 28 28 27 27 28 28 27 25 24 23 21 19 19 19 22 23 24 24 24 23 22 21 20 20 19 18 19 19 19 20 20 20 21 21 22
15 16 15 18 22 28 34 38 38 36 34 31 25 19 19 22 25 27 31 35 39 40 39 37 37 36 35 33 33 32 30 28 25 21 22 25 24 25 27 26 25 24 25 25 26 27 27 28 29 29 30 30 30 29 30 29 28 26 25 23 22 21 20 20 21 23 23 24 24 24 24 24 22 21 20 19 19 19 20 21 21 22 22 22 23 24
14 14 12 15 20 25 31 38 39 33 29 27 20 14 18 22 22 24 28 31 35 37 37 40 42 41 39 37 35 34 32 29 24 21 23 28 29 29 29 28 26 24 23 24 26 28 29 29 29 30 31 31 31 31 31 29 27 26 25 24 23 23 22 21 22 23 22 22 21 21 21 21 21 20 20 20 20 20 21 22 22 23 23 24 25 26
10 11 10 14 21 25 29 36 41 35 29 25 19 15 18 20 19 22 26 27 31 35 36 40 43 43 42 41 39 36 32 28 26 24 24 27 30 31 31 31 30 28 26 26 27 29 30 31 31 31 32 32 32 32 30 29 27 26 26 25 24 23 22 23 23 22 20 18 17 17 17 17 18 18 19 19 19 19 20 21 22 23 23 25 26 28
8 9 11 17 24 28 30 33 38 37 32 29 22 16 18 18 17 22 26 25 27 34 37 38 41 42 41 39 36 34 30 26 26 26 26 27 29 30 31 32 32 33 32 31 30 31 32 33 33 34 35 35 33 32 31 29 28 27 26 25 24 23 23 23 22 20 18 16 15 15 15 15 16 17 17 17 17 18 19 20 21 23 23 25 27 28
8 9 11 16 22 28 31 32 34 36 35 33 27 19 18 18 17 23 28 27 26 31 35 36 37 37 37 36 34 32 29 25 23 22 24 27 29 30 31 32 33 34 35 35 35 36 36 37 36 36 37 36 34 33 32 30 29 28 26 25 24 23 23 22 21 20 18 17 17 17 16 16 16 17 17 18 19 19 20 22 23 23 23 23 24 26
8 8 11 15 21 27 30 31 33 35 35 36 33 24 20 19 18 22 26 26 27 30 32 32 32 33 34 35 33 30 28 24 22 21 22 25 28 29 30 31 32 34 33 33 35 37 38 39 40 40 39 37 35 34 32 30 29 27 25 24 24 24 23 22 22 21 19 18 18 18 17 17 17 18 18 19 20 21 22 23 23 23 23 23 23 23
6 7 10 13 17 23 28 31 34 35 36 39 37 30 23 21 21 24 25 23 26 31 31 29 30 30 31 33 31 28 25 24 24 25 25 25 25 25 26 30 33 34 32 32 32 33 34 37 40 41 41 39 36 34 32 30 28 26 25 25 25 25 23 23 22 21 20 19 19 18 17 16 17 17 18 19 20 21 22 23 23 24 24 24 24 24
5 8 11 13 14 18 25 31 33 34 38 42 41 37 31 24 23 28 29 25 25 30 31 29 29 29 28 30 29 27 25 24 24 24 24 24 23 23 26 29 31 32 33 32 33 34 35 37 39 40 39 39 36 33 31 30 28 26 26 27 26 25 24 23 22 21 20 19 18 17 16 16 17 18 19 20 20 21 22 23 24 24 24 24 25 25
4 6 10 11 10 12 19 27 31 34 38 42 44 43 39 33 30 32 32 29 27 30 31 30 29 27 26 26 27 26 25 25 24 22 22 22 23 24 26 26 27 29 30 29 31 35 38 40 40 38 36 36 33 31 30 29 28 28 28 27 26 25 24 23 21 20 19 19 18 18 18 18 19 20 20 20 21 21 22 23 23 23 23 23 24 25
4 4 8 10 8 9 16 23 27 32 36 37 38 37 37 36 34 34 36 34 31 32 34 31 28 26 26 26 27 27 26 26 25 23 22 21 22 24 24 24 25 27 29 29 31 34 38 40 39 38 36 33 31 30 30 28 28 28 27 26 26 25 23 22 21 20 19 19 19 19 19 20 20 21 21 21 21 22 22 23 23 23 23 24 25 26
2 1 5 8 6 7 13 16 21 28 31 32 33 33 32 32 32 35 39 35 29 32 38 38 32 29 29 29 30 30 30 28 26 23 21 21 22 22 22 23 23 24 28 32 33 35 38 39 40 40 38 34 31 29 28 28 28 27 26 26 26 24 23 21 21 20 19 19 20 20 20 21 21 21 21 22 22 23 23 24 24 25 25 26 26 27
0 1 5 6 3 5 9 10 15 23 26 27 30 32 29 26 27 33 38 32 26 31 38 41 38 34 32 32 32 32 31 28 24 21 18 17 18 19 20 21 19 18 22 29 32 35 38 40 41 41 36 33 31 30 29 29 28 27 26 26 25 24 22 21 21 20 20 20 20 21 21 21 21 21 22 23 24 24 25 26 26 27 27 27 27 28
1 5 7 4 3 6 9 8 10 17 21 23 26 29 28 25 25 29 32 30 30 31 34 37 38 35 33 33 33 31 29 26 22 19 16 15 15 15 16 17 15 14 17 23 30 35 38 40 42 39 34 31 31 30 30 30 29 27 27 26 25 23 22 21 21 20 20 20 21 22 22 22 22 23 23 24 25 26 27 28 28 28 29 29 29 29
Wind_Direction
242 241 240 237 234 233 232 231 230 227 226 225 225 227 228 228 228 228 227 225 225 227 228 228 231 233 234 233 232 232 229 226 225 224 220 218 218 218 221 225 228 233 238 243 248 250 253 256 259 260 262 265 268 277 284 281 279 280 279 278 275 274 273 270 268 268 269 271 273 274 275 279 283 287 294 301 303 302 304 306 308 311 316 318 314 311
244 243 242 239 236 235 233 231 229 227 226 224 223 225 226 226 226 227 227 224 224 227 228 228 230 232 232 232 232 234 234 229 225 225 223 222 223 222 224 227 231 234 239 244 248 251 253 255 257 259 262 265 270 278 281 279 281 281 278 275 271 271 269 265 263 264 266 268 270 272 274 278 283 290 296 299 297 298 302 304 307 312 315 315 312 310
247 246 244 242 238 235 233 231 229 228 226 225 223 223 223 224 225 225 226 225 223 225 227 228 230 231 231 231 231 231 233 231 228 227 224 224 226 227 227 229 233 236 238 242 246 248 251 254 257 260 263 266 271 277 278 278 281 281 276 269 266 267 264 261 260 260 262 264 267 270 274 279 285 291 295 296 295 298 303 306 309 311 311 309 308 308
248 246 244 244 241 236 232 231 230 229 227 225 223 222 222 222 223 224 225 225 224 224 226 227 230 231 230 230 230 229 231 232 232 231 227 224 225 228 230 231 234 237 239 241 244 248 252 255 258 261 263 267 272 274 274 277 279 276 268 261 260 261 259 258 258 259 260 262 265 269 275 280 286 290 292 293 295 300 307 310 311 310 308 308 308 307
248 245 244 244 243 238 232 229 230 229 227 225 224 223 221 220 222 222 222 223 225 225 225 226 229 231 230 229 228 227 228 229 231 232 230 227 223 225 229 231 235 238 241 243 245 248 251 255 258 261 263 266 267 268 271 276 275 269 264 259 258 257 255 255 257 259 260 262 266 271 276 280 284 287 290 292 297 305 312 315 311 308 306 306 306 307
247 245 245 246 243 237 230 227 228 228 227 225 223 223 221 219 220 221 219 220 223 225 225 225 228 230 229 228 228 226 226 227 227 228 230 228 224 223 226 229 232 236 239 242 244 246 248 251 255 257 259 260 261 265 271 273 270 265 261 258 257 255 253 254 258 260 262 264 268 271 275 278 281 284 288 293 302 311 317 316 313 310 306 303 303 305
248 246 246 245 240 233 226 223 224 226 226 223 222 222 221 218 218 219 218 219 221 224 224 224 227 229 229 228 228 227 226 225 225 226 228 229 226 225 226 228 229 231 234 237 239 241 242 245 249 251 253 256 258 262 266 267 264 261 258 256 254 253 253 257 260 261 262 264 266 270 273 276 278 282 287 296 304 310 312 312 313 311 307 303 301 302
253 248 242 238 232 226 223 219 219 222 223 221 219 220 220 218 217 217 217 219 221 223 222 222 224 229 230 228 228 228 228 226 224 223 224 227 227 226 227 229 231 231 232 234 236 238 241 244 248 250 254 256 255 257 259 260 259 256 254 254 253 253 256 259 259 259 261 263 265 269 271 274 278 283 291 298 301 303 304 305 306 306 304 302 301 300
253 245 236 232 228 222 220 218 217 220 222 218 216 218 218 217 215 213 214 218 220 221 221 221 224 227 229 227 227 229 229 227 224 221 222 224 226 227 229 231 233 233 234 234 235 239 242 246 249 254 255 251 246 249 252 252 252 251 252 254 255 255 257 257 257 258 260 262 264 267 270 275 281 288 294 297 299 301 301 299 299 299 301 301 301 299
248 242 230 228 227 222 218 216 216 219 221 219 215 216 215 214 213 209 209 213 214 217 220 220 223 226 228 226 226 227 227 225 223 221 221 223 225 227 229 231 233 234 235 235 236 238 241 244 249 250 244 236 237 242 244 247 251 250 251 254 255 255 255 255 256 257 259 261 263 266 271 278 284 290 293 295 298 299 298 297 295 296 299 301 300 296
241 236 227 225 225 222 219 216 215 216 218 218 216 214 212 212 210 206 206 205 205 215 220 219 221 227 229 227 223 223 225 225 224 222 221 222 224 226 228 230 233 236 238 237 237 238 239 240 238 233 229 232 236 239 241 246 250 249 249 252 253 253 253 254 255 256 259 261 263 267 273 279 284 287 291 294 296 296 294 293 292 294 298 299 297 293
238 234 231 230 226 222 219 216 214 214 215 216 215 211 209 208 205 203 201 197 202 216 220 218 221 227 230 228 223 223 225 228 227 225 223 222 222 224 228 229 231 235 239 239 238 239 239 237 233 233 237 238 238 239 241 243 246 248 248 249 250 251 252 253 254 256 258 260 263 268 273 277 282 285 288 292 294 294 292 290 290 292 295 294 293 293
241 237 233 229 226 222 217 213 211 211 212 213 212 208 206 203 199 199 198 196 208 218 218 217 220 226 229 228 227 227 225 226 227 227 226 225 222 224 228 229 230 233 237 239 239 240 240 240 239 241 239 235 237 240 241 242 246 248 248 246 246 248 249 251 253 256 258 260 263 267 272 276 280 283 286 288 290 291 290 290 291 293 293 291 290 291
243 239 233 228 224 220 217 213 210 211 211 209 208 206 203 199 195 197 198 202 213 218 215 214 218 224 228 228 229 230 228 226 226 228 228 225 221 223 227 229 230 231 234 237 239 242 243 242 241 238 231 230 235 236 237 242 245 246 244 242 242 245 247 249 252 255 258 260 263 267 271 275 279 283 285 284 285 287 287 289 291 292 291 288 286 284
245 239 234 231 226 221 218 215 211 213 214 208 205 205 202 197 194 196 199 207 215 215 211 211 216 222 226 227 227 228 230 229 226 227 229 224 218 222 226 227 229 230 231 233 237 240 242 239 235 231 227 227 231 232 233 237 239 240 241 239 240 243 246 248 250 254 258 260 263 267 271 275 279 282 282 281 282 283 285 288 290 290 288 284 281 278
250 240 231 229 227 222 219 215 210 213 214 206 201 203 200 194 193 196 200 207 212 211 206 208 216 222 224 225 227 227 229 229 227 227 228 223 218 223 225 224 226 229 230 231 234 236 236 232 229 225 223 225 228 229 230 233 235 235 235 236 238 241 243 246 249 254 258 260 263 269 273 276 278 279 279 280 280 281 282 286 288 288 284 281 280 279
244 217 214 220 220 219 219 216 212 211 208 201 199 201 197 190 191 194 197 202 207 206 205 207 215 222 223 224 226 227 227 228 228 227 227 223 222 226 225 222 223 226 229 231 232 234 232 228 226 224 223 224 225 227 229 230 230 230 231 233 236 239 242 246 250 254 258 260 265 270 273 275 276 276 277 278 280 280 281 285 285 282 280 279 280 283
198 185 206 213 209 212 213 211 210 207 201 196 196 194 188 186 188 189 192 199 205 205 205 207 213 220 222 222 224 224 224 226 227 228 227 224 225 227 225 221 222 223 225 228 229 230 228 224 223 223 223 223 223 225 225 225 226 226 228 230 232 236 241 245 250 254 257 261 267 270 270 271 272 274 275 275 277 279 280 282 282 277 277 279 282 285
168 188 209 207 197 204 207 206 204 199 192 190 189 185 182 183 185 187 189 194 200 202 204 206 211 218 219 218 220 223 222 223 226 227 226 226 228 229 226 223 221 219 219 221 223 224 223 220 221 222 221 221 223 223 222 223 225 226 227 229 232 236 242 246 249 252 257 262 265 266 265 267 270 272 273 273 273 275 277 278 276 274 277 281 284 286
131 161 186 198 202 206 207 205 198 190 183 179 180 181 180 182 184 186 187 188 193 200 204 204 210 218 219 217 219 222 223 222 223 224 223 225 228 229 228 227 222 217 217 219 220 221 221 221 222 221 220 220 221 221 222 224 226 227 228 230 233 238 243 245 246 250 256 260 261 260 261 265 267 268 268 269 271 273 274 271 271 273 276 281 284 281
7 5 65 178 204 214 210 201 191 183 176 172 175 178 178 180 183 183 183 186 189 194 199 203 211 216 217 217 218 221 224 223 222 222 221 222 225 225 225 227 222 217 217 219 220 221 222 221 219 218 218 218 218 218 221 224 225 227 229 231 235 240 243 242 244 249 254 255 255 256 258 260 261 261 263 266 268 270 270 267 266 269 273 280 283 276
11 7 32 172 200 213 201 188 183 177 171 169 173 175 176 180 181 180 180 183 185 184 189 200 212 218 215 214 217 218 220 222 220 221 221 220 222 222 222 224 219 213 213 217 220 221 219 218 216 217 218 219 220 220 222 225 226 228 231 234 238 241 241 239 242 247 249 250 251 252 254 254 253 255 258 262 265 266 263 260 259 261 269 281 284 278
27 45 122 181 203 201 180 180 180 172 168 169 172 173 176 180 179 176 175 177 181 178 181 197 208 217 213 210 214 215 214 214 216 220 221 221 222 222 222 220 214 206 206 212 216 215 214 214 215 216 217 219 220 221 224 227 229 230 232 235 238 238 237 237 239 243 244 244 247 249 248 247 247 250 254 258 260 257 252 252 255 260 272 283 284 280
33 61 138 160 193 193 184 181 176 168 167 171 172 174 177 179 176 174 172 175 179 172 170 194 201 205 206 204 208 212 209 206 210 217 221 220 221 220 218 216 210 204 208 215 215 212 211 212 214 215 215 216 218 221 225 229 231 232 233 234 234 233 233 235 237 239 240 240 244 245 243 242 243 247 250 253 252 248 245 250 258 268 278 284 283 280
18 25 133 140 171 185 180 174 169 167 169 172 173 175 176 176 175 173 173 178 179 171 162 185 193 190 198 204 206 208 207 206 210 216 217 217 217 215 214 211 203 198 205 211 210 209 209 212 214 214 213 214 217 221 226 229 230 230 230 229 228 229 231 233 234 235 236 237 241 242 240 240 242 245 248 248 245 242 244 253 264 275 281 283 281 277
20 57 148 153 167 173 167 166 167 167 169 172 175 176 174 174 174 174 178 178 173 173 171 171 179 180 188 203 208 210 209 209 213 217 216 214 213 213 212 205 195 189 188 195 202 206 209 212 213 212 211 213 216 221 225 227 227 226 226 224 223 225 228 229 230 232 233 235 239 239 238 238 241 244 245 242 239 239 246 256 267 276 279 276 270 271
33 113 151 158 164 167 165 166 167 167 169 174 176 174 172 173 174 176 179 173 167 175 175 163 166 173 176 184 193 199 201 201 205 212 214 212 212 213 210 199 190 190 194 201 208 210 210 211 210 209 210 212 216 220 222 223 223 223 223 221 220 223 224 225 227 229 230 233 236 236 236 237 239 242 242 239 236 239 246 255 265 273 273 265 260 265
62 126 152 162 165 166 168 170 171 170 171 173 172 171 171 173 176 178 177 169 168 173 169 163 167 171 173 176 182 188 192 193 198 207 212 213 216 218 212 200 192 194 202 211 215 213 211 210 209 208 209 212 215 217 219 221 222 221 219 216 217 219 220 223 226 226 229 232 233 234 234 235 237 238 238 237 235 237 242 250 260 266 266 260 258 265
127 132 152 168 172 170 172 174 173 172 172 171 169 170 173 174 177 180 176 170 170 168 163 165 170 170 172 180 189 194 195 194 197 204 211 214 218 219 213 206 201 198 200 207 212 213 210 208 207 207 209 212 214 216 219 221 222 220 216 214 214 216 219 223 224 226 229 231 231 232 232 232 233 235 235 234 233 234 237 245 254 260 263 262 262 267
142 142 151 170 177 178 180 178 174 173 173 171 169 169 172 175 178 178 172 171 171 167 164 167 171 171 172 181 192 199 198 198 199 203 207 211 215 215 209 208 206 199 198 204 209 211 209 207 205 206 209 212 214 216 219 222 221 218 214 211 210 215 221 224 225 227 229 229 230 231 230 229 230 232 233 233 232 232 235 240 247 254 260 264 268 272
150 159 152 163 175 181 185 183 176 176 176 175 172 169 171 176 177 173 171 173 172 169 167 168 170 172 172 178 189 195 195 198 202 205 207 209 209 208 207 208 205 198 198 205 208 208 208 207 206 208 211 212 212 215 218 219 217 213 210 206 207 215 221 225 226 228 228 227 229 229 228 227 228 231 233 234 233 234 235 239 243 248 255 261 267 271
156 165 151 159 175 184 190 190 181 177 178 177 171 167 171 175 174 171 172 174 172 169 168 168 171 174 176 181 187 191 193 199 205 210 213 213 210 209 213 213 204 197 200 206 208 208 207 208 208 209 211 210 210 213 214 214 213 212 209 205 208 217 223 226 229 227 225 226 227 227 226 226 227 231 234 235 235 236 238 240 243 245 250 255 260 266
150 162 159 169 180 185 191 192 181 171 173 172 164 163 168 173 175 173 172 173 174 172 170 172 176 179 181 184 188 194 201 205 211 217 220 219 217 216 220 217 204 198 202 207 207 206 206 207 207 209 210 210 209 210 210 211 212 211 207 204 210 219 224 227 228 225 222 223 223 224 224 224 226 230 234 235 236 238 240 243 245 247 250 254 257 261
147 162 170 177 180 178 185 191 183 171 169 165 160 162 167 174 180 178 173 177 179 174 172 176 179 181 184 188 193 201 209 213 218 223 224 223 221 218 217 212 200 195 201 206 205 203 204 204 205 206 207 207 207 207 207 208 209 206 203 203 211 219 223 226 225 221 219 219 219 222 223 223 225 230 234 236 237 240 243 246 249 252 254 256 258 260
152 161 168 177 181 174 178 185 179 167 166 164 161 164 170 179 186 184 180 183 179 173 174 179 178 179 185 191 197 204 211 215 218 221 221 221 219 216 212 206 197 194 200 204 203 202 202 203 204 205 207 207 206 207 208 209 208 205 203 206 213 219 223 224 221 218 218 217 217 220 222 222 224 229 234 236 238 242 246 249 253 255 257 259 261 263
158 162 168 179 182 171 172 179 175 165 170 172 167 167 175 181 185 182 177 178 177 175 178 181 181 183 188 192 197 203 209 213 215 217 218 217 217 216 215 209 201 198 201 203 202 202 203 203 204 205 207 208 209 210 211 210 207 205 206 210 215 220 223 221 218 219 219 217 216 219 221 222 224 228 233 236 239 243 247 250 254 256 259 262 264 265
163 170 176 180 179 174 174 180 178 175 180 180 173 173 177 172 169 170 170 174 179 180 179 180 182 184 185 188 192 197 204 210 213 214 214 212 213 215 215 212 205 201 201 201 200 200 201 201 204 205 206 208 210 211 211 209 206 205 208 212 216 221 222 219 219 222 222 220 219 221 223 224 225 228 233 236 239 242 246 249 253 256 259 262 264 266
152 165 174 175 179 181 180 180 181 181 185 184 180 184 184 166 161 167 171 176 183 184 181 180 177 176 181 187 191 195 204 211 213 212 208 205 206 208 210 210 207 204 203 202 202 202 202 201 203 205 206 207 208 208 208 207 207 207 209 213 216 220 221 221 223 227 227 226 225 225 226 226 227 229 233 236 239 242 246 249 252 254 258 261 263 265
135 146 161 169 179 187 184 180 179 179 181 183 181 184 186 176 168 166 168 177 184 183 180 178 174 175 184 192 196 202 210 216 218 214 207 204 202 200 201 204 205 207 208 206 204 204 204 203 203 204 207 209 208 207 206 207 206 207 209 212 215 219 223 226 228 229 229 228 228 227 227 227 228 230 233 236 240 243 247 251 254 257 259 261 262 263
133 137 147 166 180 188 186 182 181 181 182 184 181 181 189 186 174 161 159 170 178 175 172 174 175 179 188 194 200 207 211 214 217 209 201 201 199 195 195 196 198 204 209 210 208 205 203 203 205 207 209 210 210 208 207 206 205 206 208 211 214 219 223 225 226 226 225 225 226 225 225 226 227 230 233 237 241 245 249 253 257 260 261 261 261 262
149 142 133 152 171 180 183 185 188 190 193 195 192 193 197 190 173 160 157 161 170 172 171 174 178 184 190 194 201 207 209 209 210 205 200 200 198 197 196 196 196 198 202 206 209 208 204 202 203 206 209 209 209 207 206 205 204 205 208 212 216 219 219 219 220 220 219 218 217 217 218 220 224 228 232 237 241 247 252 256 259 261 262 263 262 262
176 164 145 150 164 174 181 186 190 194 201 206 203 194 191 185 169 164 162 161 168 173 177 182 185 188 192 196 201 208 210 210 211 210 208 207 206 203 200 199 199 200 201 202 204 205 205 201 200 204 206 205 204 203 203 203 203 205 209 212 215 215 213 213 214 212 210 208 209 211 213 216 222 228 233 239 245 251 255 258 259 261 262 263 263 262
183 176 162 156 162 173 181 186 189 193 201 207 204 191 184 179 166 165 169 173 176 176 179 187 191 192 196 200 203 207 210 211 213 214 212 210 210 208 206 205 205 205 205 204 203 203 203 201 201 203 204 202 200 199 200 201 203 205 209 211 211 210 208 208 208 207 206 208 212 217 221 225 232 238 243 248 251 254 256 258 260 261 262 263 265 264
181 180 176 169 165 170 178 186 190 192 198 206 207 201 189 178 173 176 180 183 186 185 182 186 191 195 199 202 205 207 209 210 213 217 218 215 212 210 209 210 212 212 212 212 209 205 202 201 200 200 200 198 196 196 197 200 202 205 207 208 207 207 206 207 209 211 213 217 223 231 237 242 248 251 254 255 256 256 257 259 261 262 264 264 265 263
196 195 194 188 175 169 175 183 189 193 199 206 209 206 193 178 179 189 194 195 198 198 193 188 188 194 199 199 199 200 202 203 208 215 221 223 220 217 213 212 213 214 216 217 216 212 209 206 201 198 194 191 190 193 195 198 201 203 205 207 208 209 209 211 215 220 226 231 238 244 250 256 259 260 259 258 258 258 259 260 262 263 265 265 265 264
216 210 206 200 185 172 173 177 182 188 195 201 205 204 198 192 195 200 200 202 207 208 203 195 190 193 198 197 195 195 196 199 205 212 218 223 224 222 219 218 219 219 220 220 215 212 212 207 202 200 195 187 186 190 194 197 200 202 206 209 211 212 213 216 222 230 237 243 248 254 260 265 266 265 263 262 261 261 261 262 263 264 265 266 266 265
209 209 207 203 195 179 174 176 180 185 188 192 197 201 204 208 210 206 200 204 212 212 205 198 195 198 203 203 205 208 209 209 211 215 219 221 221 223 226 229 229 229 228 224 215 210 206 200 199 202 197 186 184 190 194 197 201 204 207 212 215 216 220 224 230 236 242 248 256 262 267 270 269 268 267 265 264 264 263 264 264 265 265 266 267 267
186 196 204 211 214 192 176 175 180 183 184 185 189 195 201 207 208 204 203 212 223 221 210 204 206 212 217 220 223 225 226 225 225 227 228 226 224 226 230 232 234 234 231 225 217 210 204 198 197 198 194 187 187 193 197 200 203 206 210 215 218 222 227 230 234 240 246 253 260 265 268 268 267 268 268 267 266 267 267 267 268 268 267 267 267 268
180 208 197 205 221 200 182 178 184 188 189 189 189 190 197 206 211 209 207 212 224 224 216 214 219 226 231 235 237 237 237 236 235 235 235 234 232 232 232 234 239 239 232 224 216 208 204 202 198 195 192 191 193 197 200 204 206 209 213 218 222 227 230 234 239 245 250 256 261 264 265 265 266 267 268 267 268 269 269 269 268 268 267 266 266 267
358 70 154 176 209 197 180 176 186 192 195 197 197 197 201 212 216 209 203 206 219 223 219 219 224 232 237 239 240 241 241 240 238 236 235 234 235 236 235 236 241 241 230 220 212 207 204 202 198 196 197 197 198 199 202 206 209 212 215 221 226 230 233 238 243 248 252 257 260 262 263 263 264 266 267 267 268 268 267 267 267 267 268 268 267 267
98 123 134 147 157 147 143 147 177 192 196 200 204 207 211 217 215 207 206 216 226 226 221 219 222 230 236 236 236 238 238 238 237 235 231 230 230 232 234 235 239 243 231 217 210 208 205 201 200 204 207 204 201 202 204 207 211 215 219 224 230 234 237 242 245 248 253 257 260 262 262 262 263 264 265 266 266 266 266 267 267 268 269 269 269 269
Height
5636 5637 5640 5646 5652 5657 5660 5662 5666 5670 5671 5673 5677 5681 5689 5697 5702 5709 5716 5724 5730 5730 5732 5737 5741 5744 5750 5756 5762 5768 5773 5778 5783 5787 5792 5796 5799 5802 5804 5805 5806 5808 5811 5812 5812 5814 5815 5818 5819 5820 5822 5826 5829 5833 5836 5836 5836 5837 5838 5839 5839 5839 5841 5840 5839 5840 5841 5841 5841 5841 5841 5842 5843 5843 5844 5844 5844 5844 5843 5843 5842 5842 5841 5841 5840 5840
5630 5632 5638 5645 5650 5652 5652 5654 5656 5658 5660 5666 5671 5675 5681 5688 5696 5703 5710 5718 5725 5725 5727 5733 5735 5738 5744 5751 5757 5762 5766 5771 5777 5781 5786 5791 5793 5797 5799 5801 5804 5806 5808 5808 5809 5810 5812 5814 5815 5816 5819 5823 5827 5831 5833 5833 5834 5834 5835 5836 5835 5836 5837 5836 5836 5837 5838 5838 5838 5838 5838 5839 5841 5841 5842 5842 5842 5841 5841 5840 5840 5839 5839 5838 5838 5837
5625 5629 5637 5642 5643 5643 5644 5646 5648 5650 5653 5659 5664 5668 5674 5682 5691 5697 5703 5712 5719 5719 5721 5727 5729 5732 5740 5745 5751 5756 5760 5765 5771 5775 5781 5786 5788 5791 5794 5798 5800 5802 5803 5804 5805 5807 5809 5811 5811 5813 5818 5821 5825 5828 5829 5831 5831 5832 5832 5832 5832 5832 5833 5833 5833 5835 5835 5835 5836 5836 5836 5838 5839 5839 5839 5839 5839 5839 5838 5838 5838 5837 5837 5836 5836 5835
5619 5627 5633 5633 5632 5633 5636 5639 5641 5643 5647 5653 5658 5662 5669 5678 5684 5691 5699 5706 5711 5713 5716 5721 5723 5726 5733 5738 5744 5751 5755 5760 5765 5769 5775 5780 5784 5787 5790 5794 5795 5796 5798 5800 5802 5804 5806 5807 5808 5811 5816 5819 5822 5824 5826 5828 5829 5829 5829 5829 5829 5829 5830 5830 5831 5832 5832 5833 5833 5833 5834 5836 5837 5837 5837 5837 5836 5836 5836 5836 5836 5835 5835 5834 5834 5833
5615 5623 5624 5622 5624 5627 5630 5633 5635 5637 5642 5647 5653 5658 5666 5674 5679 5685 5694 5699 5704 5707 5710 5716 5718 5719 5726 5732 5738 5745 5749 5754 5758 5763 5768 5772 5779 5783 5785 5788 5790 5791 5793 5796 5798 5801 5803 5804 5805 5809 5813 5816 5818 5820 5822 5825 5826 5826 5825 5825 5826 5826 5827 5827 5828 5830 5830 5831 5831 5831 5833 5834 5834 5834 5834 5834 5834 5834 5834 5834 5834 5833 5832 5832 5831 5831
5610 5616 5614 5614 5617 5619 5622 5626 5628 5631 5636 5641 5647 5654 5662 5670 5674 5680 5688 5693 5696 5700 5706 5713 5712 5713 5721 5726 5731 5738 5743 5747 5753 5757 5761 5766 5773 5777 5779 5782 5784 5787 5789 5792 5794 5797 5800 5802 5803 5806 5809 5813 5816 5817 5819 5822 5823 5823 5822 5822 5823 5824 5824 5825 5826 5827 5828 5828 5828 5829 5831 5832 5832 5832 5832 5832 5832 5832 5832 5832 5831 5831 5830 5829 5829 5828
5603 5607 5605 5605 5609 5611 5614 5618 5622 5626 5629 5635 5643 5650 5656 5663 5669 5675 5683 5686 5688 5693 5701 5705 5705 5708 5714 5719 5725 5732 5737 5742 5748 5752 5756 5762 5767 5770 5774 5777 5779 5781 5785 5788 5791 5794 5797 5798 5800 5803 5807 5811 5813 5814 5816 5818 5819 5820 5819 5819 5820 5821 5822 5823 5824 5825 5825 5825 5826 5827 5828 5829 5829 5829 5830 5830 5830 5830 5830 5829 5829 5828 5828 5827 5826 5825
5597 5596 5594 5596 5600 5602 5604 5609 5615 5619 5621 5629 5640 5645 5650 5658 5665 5672 5678 5679 5683 5689 5693 5696 5700 5703 5707 5713 5721 5727 5731 5737 5742 5746 5752 5757 5761 5765 5768 5770 5773 5777 5781 5784 5787 5790 5793 5794 5797 5801 5805 5808 5809 5811 5813 5815 5816 5816 5815 5816 5818 5819 5820 5821 5822 5822 5822 5823 5824 5825 5826 5827 5827 5827 5828 5827 5827 5828 5827 5827 5826 5826 5825 5824 5823 5822
5588 5587 5588 5590 5592 5594 5598 5605 5611 5614 5616 5626 5636 5640 5645 5653 5659 5667 5672 5674 5679 5683 5684 5691 5698 5699 5700 5708 5717 5722 5726 5730 5735 5742 5748 5752 5757 5760 5763 5766 5770 5773 5776 5779 5783 5787 5790 5792 5796 5799 5802 5804 5805 5807 5810 5812 5813 5813 5813 5815 5816 5817 5818 5819 5819 5819 5820 5821 5822 5823 5824 5825 5825 5825 5825 5825 5825 5825 5825 5824 5824 5823 5823 5822 5820 5820
5583 5583 5585 5585 5587 5590 5595 5602 5607 5610 5615 5623 5630 5634 5639 5646 5653 5661 5666 5670 5674 5674 5678 5689 5694 5694 5695 5701 5710 5715 5718 5723 5731 5739 5745 5749 5753 5756 5759 5763 5766 5768 5771 5775 5780 5784 5787 5790 5793 5796 5799 5800 5802 5804 5807 5809 5810 5810 5811 5813 5814 5815 5816 5816 5817 5817 5818 5819 5821 5821 5822 5823 5823 5823 5823 5823 5823 5822 5822 5822 5821 5821 5820 5819 5818 5817
5579 5580 5580 5581 5584 5588 5594 5599 5603 5607 5612 5618 5623 5628 5634 5641 5649 5656 5659 5665 5667 5665 5672 5685 5690 5690 5689 5694 5704 5709 5712 5720 5729 5735 5740 5745 5749 5752 5756 5759 5761 5763 5766 5771 5777 5780 5783 5786 5790 5793 5795 5797 5799 5801 5804 5806 5807 5808 5809 5811 5811 5812 5813 5814 5814 5815 5816 5817 5819 5819 5820 5821 5821 5821 5821 5821 5820 5820 5819 5819 5819 5818 5818 5816 5815 5814
5575 5576 5578 5580 5583 5587 5591 5594 5599 5603 5608 5612 5617 5623 5629 5635 5644 5649 5653 5657 5657 5658 5670 5683 5688 5687 5683 5690 5702 5706 5711 5719 5725 5731 5736 5741 5745 5750 5753 5754 5757 5760 5763 5768 5772 5775 5779 5783 5787 5790 5793 5795 5796 5798 5801 5803 5804 5805 5806 5808 5809 5809 5810 5811 5812 5813 5814 5816 5817 5818 5818 5819 5819 5819 5819 5819 5818 5817 5817 5816 5816 5816 5815 5814 5813 5812
5572 5574 5576 5578 5580 5583 5586 5589 5594 5598 5601 5606 5612 5618 5623 5629 5637 5643 5647 5652 5653 5658 5671 5682 5686 5682 5679 5688 5699 5703 5709 5716 5721 5727 5732 5737 5743 5747 5749 5750 5754 5757 5759 5764 5767 5771 5775 5780 5784 5787 5790 5792 5794 5796 5798 5800 5801 5802 5804 5805 5806 5806 5807 5808 5810 5811 5813 5814 5815 5816 5816 5817 5817 5817 5817 5816 5816 5815 5814 5814 5814 5813 5813 5812 5811 5810
5569 5571 5572 5574 5575 5578 5581 5585 5589 5593 5596 5601 5608 5613 5617 5623 5631 5638 5645 5650 5652 5658 5670 5679 5681 5676 5675 5684 5694 5701 5708 5714 5719 5723 5727 5734 5740 5743 5744 5747 5750 5753 5756 5760 5764 5768 5772 5777 5781 5784 5787 5789 5791 5793 5795 5797 5798 5799 5801 5802 5802 5803 5805 5806 5807 5809 5811 5812 5812 5813 5814 5814 5814 5815 5814 5814 5813 5813 5812 5812 5811 5811 5810 5809 5808 5807
5564 5565 5568 5570 5572 5575 5578 5582 5587 5592 5595 5599 5606 5611 5613 5620 5628 5636 5645 5649 5650 5657 5668 5674 5672 5669 5672 5681 5690 5698 5705 5710 5716 5719 5724 5731 5736 5738 5740 5743 5746 5749 5752 5756 5760 5765 5770 5774 5778 5780 5783 5786 5788 5789 5791 5793 5795 5796 5797 5798 5799 5801 5802 5803 5805 5807 5809 5810 5810 5811 5811 5812 5812 5812 5812 5811 5811 5810 5810 5809 5809 5808 5808 5807 5806 5805
5560 5561 5564 5566 5568 5571 5574 5578 5584 5587 5589 5597 5603 5605 5609 5620 5630 5638 5645 5648 5651 5657 5664 5666 5664 5665 5672 5680 5688 5695 5700 5706 5712 5716 5720 5727 5731 5732 5735 5739 5742 5745 5748 5753 5757 5761 5766 5771 5773 5776 5779 5782 5784 5786 5787 5790 5792 5793 5794 5795 5796 5798 5799 5800 5802 5805 5807 5807 5808 5809 5809 5809 5809 5809 5809 5808 5808 5808 5807 5807 5806 5806 5805 5804 5803 5802
5559 5559 5560 5561 5563 5566 5570 5575 5579 5581 5587 5595 5597 5601 5613 5625 5632 5638 5643 5646 5649 5653 5658 5662 5663 5665 5672 5679 5686 5693 5699 5704 5708 5711 5716 5723 5726 5727 5731 5736 5739 5742 5746 5750 5754 5759 5763 5767 5770 5772 5775 5778 5780 5782 5784 5787 5788 5789 5791 5792 5793 5794 5795 5797 5800 5803 5804 5805 5806 5806 5807 5807 5806 5806 5806 5806 5805 5805 5805 5804 5804 5803 5803 5802 5801 5800
5558 5559 5559 5559 5560 5563 5567 5571 5574 5578 5585 5590 5594 5605 5618 5623 5626 5631 5636 5639 5644 5650 5656 5661 5662 5665 5672 5679 5684 5690 5695 5700 5704 5708 5714 5719 5721 5723 5729 5734 5737 5740 5744 5748 5752 5756 5760 5764 5766 5769 5772 5774 5777 5779 5781 5783 5784 5786 5787 5788 5790 5791 5793 5795 5798 5800 5801 5803 5804 5804 5804 5804 5804 5803 5803 5803 5803 5803 5802 5802 5801 5801 5800 5799 5798 5797
5558 5558 5558 5558 5560 5562 5564 5566 5568 5573 5580 5587 5596 5607 5613 5614 5619 5624 5628 5634 5641 5648 5654 5660 5663 5665 5670 5676 5681 5687 5692 5698 5702 5706 5711 5715 5717 5721 5726 5731 5734 5737 5741 5744 5748 5752 5756 5760 5762 5765 5768 5771 5773 5776 5778 5779 5781 5782 5784 5785 5787 5788 5790 5793 5796 5798 5799 5801 5801 5802 5802 5802 5801 5801 5801 5801 5801 5800 5800 5800 5799 5799 5798 5797 5796 5795
5558 5558 5558 5559 5560 5561 5561 5562 5565 5569 5575 5584 5595 5602 5606 5612 5618 5624 5629 5636 5642 5648 5655 5660 5663 5663 5668 5675 5681 5686 5690 5696 5701 5704 5708 5712 5715 5720 5725 5727 5731 5734 5738 5742 5746 5750 5754 5757 5759 5762 5765 5767 5770 5772 5774 5776 5777 5779 5780 5782 5784 5786 5788 5792 5794 5795 5797 5798 5799 5800 5800 5799 5799 5798 5798 5798 5798 5798 5798 5798 5797 5796 5795 5795 5794 5793
5559 5559 5559 5559 5561 5560 5560 5562 5566 5569 5573 5580 5589 5596 5603 5611 5617 5624 5631 5637 5642 5648 5655 5660 5661 5661 5667 5675 5680 5684 5689 5695 5700 5703 5706 5710 5713 5718 5722 5725 5728 5733 5736 5740 5744 5748 5751 5754 5757 5759 5761 5763 5766 5768 5770 5772 5774 5776 5777 5779 5782 5784 5787 5790 5792 5793 5794 5796 5797 5798 5797 5797 5796 5796 5796 5796 5796 5796 5796 5795 5795 5794 5794 5793 5792 5791
5560 5560 5559 5560 5560 5560 5562 5566 5570 5572 5576 5583 5590 5598 5605 5611 5618 5625 5632 5639 5644 5649 5654 5659 5660 5662 5668 5674 5679 5683 5688 5693 5698 5701 5704 5708 5711 5716 5720 5723 5727 5731 5735 5738 5742 5745 5748 5750 5753 5755 5757 5760 5762 5765 5767 5769 5771 5773 5775 5777 5780 5782 5786 5788 5789 5790 5792 5794 5795 5795 5795 5794 5794 5794 5794 5794 5794 5794 5794 5793 5793 5792 5792 5791 5791 5790
5561 5561 5561 5561 5561 5562 5564 5568 5572 5575 5580 5587 5593 5600 5605 5610 5617 5625 5632 5638 5643 5646 5651 5656 5659 5662 5668 5673 5678 5682 5687 5692 5695 5699 5702 5706 5709 5713 5718 5721 5725 5729 5733 5736 5739 5742 5745 5747 5749 5751 5754 5757 5759 5762 5764 5766 5769 5771 5773 5776 5778 5781 5783 5785 5787 5788 5790 5791 5792 5792 5792 5792 5791 5792 5792 5792 5792 5792 5792 5791 5791 5791 5790 5790 5789 5789
5562 5562 5562 5563 5563 5564 5566 5570 5573 5576 5581 5587 5593 5598 5603 5610 5617 5624 5630 5634 5638 5643 5649 5653 5657 5662 5668 5673 5677 5681 5686 5690 5693 5696 5700 5703 5706 5711 5715 5719 5723 5727 5730 5733 5736 5738 5740 5742 5745 5748 5751 5754 5756 5759 5761 5764 5767 5769 5771 5774 5776 5779 5781 5782 5784 5786 5788 5789 5789 5790 5790 5789 5789 5790 5790 5790 5790 5790 5790 5789 5789 5789 5789 5789 5788 5788
5562 5562 5563 5563 5563 5564 5566 5569 5573 5577 5582 5588 5594 5599 5605 5612 5619 5626 5630 5634 5639 5644 5647 5650 5656 5663 5668 5672 5675 5679 5684 5688 5691 5695 5698 5701 5704 5708 5712 5716 5721 5725 5727 5729 5732 5734 5736 5739 5742 5745 5749 5751 5754 5756 5759 5762 5765 5767 5769 5772 5774 5776 5778 5780 5782 5783 5785 5786 5787 5787 5787 5787 5787 5788 5788 5788 5788 5788 5788 5788 5788 5788 5787 5787 5787 5787
5563 5563 5563 5564 5565 5565 5567 5570 5573 5579 5585 5591 5596 5603 5609 5614 5621 5626 5629 5634 5639 5644 5646 5649 5657 5664 5668 5670 5673 5678 5682 5686 5689 5692 5696 5700 5703 5706 5710 5714 5719 5722 5725 5727 5729 5731 5733 5736 5740 5743 5746 5749 5751 5754 5757 5760 5762 5765 5767 5769 5771 5773 5776 5778 5779 5781 5783 5784 5784 5784 5784 5785 5785 5785 5786 5786 5786 5786 5786 5786 5786 5786 5786 5786 5786 5786
5565 5565 5565 5565 5567 5569 5571 5573 5576 5582 5588 5593 5598 5605 5611 5616 5621 5626 5630 5636 5641 5644 5645 5650 5657 5663 5665 5668 5672 5676 5680 5684 5687 5690 5693 5697 5700 5703 5708 5712 5717 5720 5723 5726 5728 5729 5732 5734 5738 5741 5744 5746 5749 5752 5755 5757 5760 5762 5764 5767 5769 5771 5774 5775 5777 5779 5780 5781 5782 5782 5782 5783 5783 5783 5784 5784 5785 5785 5785 5785 5785 5785 5785 5785 5785 5785
5568 5569 5569 5569 5571 5573 5576 5579 5582 5586 5589 5593 5598 5605 5610 5615 5620 5624 5630 5635 5639 5642 5645 5650 5656 5660 5663 5667 5671 5674 5677 5681 5685 5688 5691 5695 5698 5701 5706 5711 5714 5718 5721 5724 5726 5728 5731 5733 5736 5739 5741 5744 5746 5749 5752 5755 5757 5760 5762 5764 5767 5769 5771 5773 5775 5776 5778 5779 5780 5780 5780 5781 5781 5782 5782 5783 5783 5783 5783 5783 5783 5783 5784 5784 5784 5784
5572 5572 5573 5574 5575 5577 5580 5582 5586 5589 5592 5595 5599 5605 5610 5614 5619 5623 5627 5630 5634 5639 5644 5648 5653 5658 5661 5665 5669 5672 5676 5680 5684 5688 5691 5694 5696 5700 5705 5709 5712 5716 5719 5722 5724 5727 5730 5732 5734 5737 5739 5741 5744 5747 5750 5752 5755 5757 5759 5762 5765 5767 5769 5770 5772 5774 5775 5776 5777 5778 5778 5779 5779 5780 5780 5781 5781 5781 5782 5782 5782 5782 5782 5782 5782 5782
5574 5575 5576 5577 5579 5581 5582 5584 5587 5590 5594 5598 5602 5607 5612 5617 5621 5624 5626 5629 5634 5638 5641 5646 5652 5656 5659 5663 5668 5671 5674 5678 5683 5686 5689 5692 5695 5699 5703 5706 5710 5714 5717 5720 5723 5725 5728 5730 5732 5735 5737 5739 5742 5745 5748 5750 5753 5755 5757 5760 5763 5765 5766 5768 5770 5772 5773 5774 5775 5775 5776 5777 5777 5778 5778 5779 5779 5780 5780 5780 5781 5781 5781 5781 5781 5781
5576 5577 5578 5579 5581 5583 5585 5586 5589 5592 5595 5599 5604 5609 5614 5620 5624 5627 5629 5632 5637 5641 5643 5646 5651 5655 5658 5663 5667 5670 5673 5677 5680 5683 5687 5690 5693 5697 5701 5704 5708 5712 5715 5718 5720 5723 5725 5727 5730 5732 5735 5738 5741 5743 5746 5748 5750 5753 5755 5758 5760 5762 5764 5766 5768 5770 5771 5772 5772 5773 5774 5775 5775 5776 5776 5777 5777 5778 5778 5779 5779 5780 5780 5780 5780 5780
5578 5579 5580 5581 5583 5585 5586 5588 5591 5594 5598 5602 5607 5611 5617 5622 5625 5628 5631 5634 5638 5642 5644 5647 5650 5654 5658 5662 5666 5670 5673 5676 5679 5682 5686 5689 5693 5697 5700 5703 5706 5710 5713 5715 5718 5720 5723 5725 5728 5730 5733 5736 5739 5741 5743 5746 5748 5750 5753 5756 5758 5760 5761 5764 5766 5767 5768 5769 5770 5771 5771 5772 5773 5774 5774 5775 5776 5776 5777 5777 5777 5778 5778 5778 5778 5778
5581 5582 5583 5584 5585 5587 5589 5590 5593 5597 5601 5606 5609 5612 5617 5621 5624 5628 5632 5636 5639 5640 5642 5645 5649 5653 5658 5662 5666 5670 5672 5676 5679 5682 5685 5689 5693 5697 5700 5702 5705 5708 5711 5713 5716 5719 5721 5724 5726 5729 5731 5734 5737 5739 5741 5744 5746 5748 5751 5753 5755 5757 5759 5762 5764 5765 5766 5767 5768 5768 5769 5770 5771 5772 5772 5773 5774 5774 5775 5775 5775 5775 5776 5776 5776 5777
5584 5585 5586 5586 5587 5589 5591 5593 5596 5600 5603 5606 5609 5614 5619 5623 5626 5629 5633 5636 5639 5640 5642 5645 5648 5652 5657 5661 5665 5669 5671 5675 5678 5681 5684 5688 5691 5695 5698 5701 5703 5706 5709 5711 5715 5717 5720 5722 5724 5727 5729 5732 5734 5736 5738 5741 5743 5746 5748 5750 5752 5755 5757 5760 5761 5763 5764 5765 5765 5766 5767 5768 5769 5770 5770 5771 5772 5772 5773 5773 5773 5774 5774 5774 5774 5775
5587 5587 5588 5588 5588 5590 5593 5596 5599 5603 5606 5608 5612 5617 5622 5625 5628 5630 5632 5635 5638 5640 5642 5645 5648 5652 5657 5660 5664 5668 5671 5674 5677 5679 5683 5686 5690 5693 5696 5699 5701 5704 5707 5710 5713 5716 5718 5720 5722 5724 5726 5728 5731 5733 5736 5738 5741 5743 5745 5748 5750 5752 5755 5757 5759 5760 5762 5763 5763 5764 5765 5766 5767 5768 5768 5769 5770 5770 5770 5771 5772 5772 5772 5772 5772 5772
5589 5589 5590 5590 5590 5592 5595 5597 5600 5604 5608 5611 5615 5620 5624 5627 5629 5631 5632 5635 5637 5639 5641 5645 5648 5652 5656 5659 5663 5667 5670 5673 5676 5678 5682 5686 5689 5692 5694 5697 5700 5703 5706 5709 5712 5714 5716 5718 5720 5722 5724 5726 5729 5731 5734 5737 5739 5741 5743 5745 5748 5750 5752 5754 5756 5758 5759 5760 5761 5762 5763 5764 5765 5766 5766 5767 5768 5768 5769 5769 5769 5769 5769 5770 5770 5769
5591 5591 5591 5592 5593 5594 5596 5599 5602 5605 5609 5613 5617 5621 5623 5625 5627 5630 5632 5634 5637 5638 5641 5645 5648 5651 5655 5658 5662 5665 5668 5671 5674 5677 5681 5685 5688 5690 5693 5696 5699 5702 5705 5707 5710 5712 5714 5716 5718 5720 5722 5724 5726 5729 5732 5735 5737 5738 5741 5743 5745 5748 5750 5752 5754 5756 5757 5758 5759 5759 5760 5762 5763 5764 5764 5765 5766 5766 5766 5767 5767 5767 5767 5767 5767 5767
5592 5593 5593 5594 5595 5596 5598 5601 5605 5608 5611 5614 5617 5619 5621 5622 5625 5628 5631 5633 5635 5636 5640 5644 5647 5651 5654 5657 5661 5664 5666 5669 5672 5677 5680 5683 5686 5689 5691 5694 5697 5700 5703 5705 5707 5709 5711 5713 5715 5717 5719 5721 5723 5726 5730 5732 5734 5736 5738 5741 5743 5745 5747 5750 5752 5753 5754 5755 5756 5757 5758 5759 5760 5761 5762 5763 5763 5764 5764 5764 5764 5764 5764 5764 5764 5764
5593 5594 5595 5595 5596 5598 5600 5605 5609 5611 5613 5615 5616 5619 5621 5623 5625 5628 5630 5632 5634 5636 5639 5643 5646 5650 5654 5656 5659 5662 5664 5667 5672 5675 5678 5681 5684 5686 5689 5692 5695 5698 5701 5703 5705 5707 5709 5711 5712 5714 5716 5718 5721 5724 5727 5729 5731 5733 5736 5739 5741 5743 5745 5747 5749 5750 5751 5752 5753 5754 5756 5757 5758 5759 5760 5760 5761 5761 5761 5761 5761 5761 5762 5762 5761 5761
5595 5596 5597 5597 5598 5600 5603 5607 5611 5612 5614 5615 5617 5620 5622 5623 5626 5629 5630 5632 5635 5637 5640 5643 5646 5649 5652 5654 5657 5660 5663 5667 5671 5673 5674 5677 5680 5682 5685 5688 5692 5695 5698 5701 5703 5704 5706 5708 5709 5711 5713 5716 5719 5721 5724 5726 5728 5731 5734 5737 5739 5741 5743 5745 5746 5747 5748 5749 5750 5752 5753 5754 5755 5756 5757 5757 5758 5759 5759 5759 5759 5759 5759 5758 5758 5758
5597 5597 5599 5600 5600 5602 5605 5608 5611 5613 5614 5616 5618 5620 5622 5625 5628 5630 5631 5633 5636 5639 5641 5643 5646 5647 5650 5653 5656 5659 5662 5666 5669 5670 5672 5674 5677 5679 5682 5685 5688 5691 5694 5697 5700 5702 5703 5704 5706 5709 5711 5714 5716 5719 5721 5723 5726 5729 5732 5734 5737 5739 5741 5742 5743 5744 5745 5747 5748 5750 5751 5752 5753 5753 5754 5755 5755 5756 5756 5756 5756 5756 5755 5755 5755 5754
5598 5599 5601 5602 5602 5603 5606 5608 5611 5614 5615 5616 5619 5622 5624 5627 5629 5630 5631 5633 5636 5639 5641 5643 5645 5647 5650 5654 5657 5659 5662 5664 5666 5668 5670 5673 5675 5678 5680 5682 5684 5686 5688 5691 5694 5697 5699 5701 5702 5705 5707 5710 5713 5716 5718 5721 5724 5726 5729 5732 5734 5736 5738 5739 5740 5742 5743 5745 5746 5747 5748 5750 5750 5751 5752 5752 5753 5753 5753 5753 5752 5752 5752 5751 5751 5750
5600 5601 5602 5604 5605 5605 5607 5609 5611 5614 5615 5617 5621 5624 5626 5628 5630 5631 5633 5635 5637 5640 5642 5644 5647 5650 5653 5655 5657 5659 5661 5663 5664 5666 5668 5671 5673 5676 5678 5681 5682 5683 5685 5686 5688 5691 5693 5696 5698 5701 5704 5707 5709 5712 5716 5719 5721 5724 5727 5729 5731 5733 5734 5736 5738 5740 5741 5743 5744 5745 5746 5747 5748 5749 5749 5749 5750 5749 5749 5749 5749 5749 5749 5748 5747 5746
5603 5603 5604 5605 5606 5607 5608 5610 5611 5613 5615 5618 5622 5625 5628 5630 5632 5633 5634 5637 5640 5642 5644 5646 5649 5651 5653 5655 5658 5659 5661 5663 5664 5665 5666 5668 5671 5673 5677 5679 5681 5682 5683 5685 5687 5689 5691 5692 5694 5697 5700 5703 5707 5711 5714 5717 5720 5722 5725 5727 5729 5730 5732 5734 5736 5737 5739 5741 5742 5743 5744 5745 5745 5746 5746 5746 5746 5746 5746 5745 5745 5745 5745 5744 5744 5743
5604 5604 5605 5606 5607 5608 5609 5610 5612 5614 5616 5618 5622 5626 5629 5631 5633 5634 5635 5638 5641 5643 5646 5648 5650 5651 5653 5655 5657 5660 5661 5663 5663 5664 5665 5667 5669 5672 5674 5675 5676 5679 5682 5685 5688 5691 5693 5694 5695 5696 5697 5700 5705 5710 5713 5715 5718 5720 5722 5724 5726 5728 5730 5732 5733 5735 5737 5738 5739 5740 5741 5741 5742 5742 5742 5742 5742 5742 5742 5742 5742 5741 5741 5741 5740 5740
5605 5605 5605 5607 5608 5610 5611 5611 5613 5615 5617 5619 5622 5625 5628 5631 5633 5634 5635 5637 5640 5643 5646 5648 5649 5650 5652 5654 5657 5659 5660 5661 5662 5664 5665 5666 5668 5670 5671 5671 5673 5676 5678 5681 5685 5688 5691 5693 5696 5698 5699 5699 5702 5707 5711 5713 5716 5718 5720 5721 5723 5725 5727 5729 5731 5732 5734 5735 5736 5737 5737 5738 5738 5738 5738 5738 5738 5738 5738 5738 5738 5738 5738 5737 5737 5737
5605 5605 5607 5608 5610 5611 5612 5614 5615 5616 5617 5620 5623 5625 5627 5629 5631 5634 5636 5637 5639 5642 5645 5646 5648 5649 5651 5653 5655 5657 5659 5660 5661 5663 5664 5666 5667 5667 5667 5669 5672 5673 5675 5678 5681 5683 5686 5689 5693 5698 5701 5701 5703 5706 5709 5711 5713 5715 5717 5719 5721 5723 5726 5727 5729 5730 5731 5732 5733 5733 5733 5734 5734 5734 5734 5734 5734 5734 5734 5734 5734 5734 5734 5734 5733 5733
5606 5607 5608 5609 5610 5612 5614 5616 5617 5617 5619 5621 5624 5626 5628 5628 5630 5633 5635 5636 5638 5641 5644 5645 5646 5648 5650 5651 5653 5654 5656 5658 5660 5661 5662 5664 5665 5666 5666 5668 5670 5671 5672 5675 5678 5681 5684 5687 5691 5695 5699 5701 5703 5705 5707 5710 5712 5714 5715 5717 5719 5721 5723 5725 5726 5727 5728 5728 5729 5730 5730 5730 5730 5730 5730 5731 5731 5731 5731 5730 5730 5730 5730 5730 5729 5729
5607 5607 5608 5610 5611 5612 5614 5615 5617 5618 5620 5622 5623 5625 5627 5628 5628 5629 5632 5635 5638 5640 5641 5642 5644 5646 5648 5649 5651 5652 5654 5656 5658 5659 5661 5662 5663 5665 5666 5667 5668 5669 5670 5671 5674 5678 5681 5684 5687 5690 5694 5697 5701 5704 5706 5708 5710 5712 5714 5716 5717 5719 5720 5721 5722 5723 5724 5725 5725 5726 5726 5726 5727 5727 5727 5727 5727 5727 5727 5727 5726 5726 5726 5726 5725 5725
5607 5607 5608 5609 5610 5611 5611 5613 5616 5617 5619 5621 5623 5624 5626 5627 5627 5628 5631 5634 5637 5637 5636 5638 5642 5644 5646 5648 5649 5650 5652 5654 5656 5658 5660 5661 5662 5663 5665 5666 5667 5668 5668 5669 5672 5675 5677 5681 5685 5688 5691 5694 5698 5701 5704 5706 5708 5709 5711 5713 5714 5716 5717 5718 5719 5720 5720 5721 5721 5722 5722 5723 5723 5723 5723 5723 5723 5723 5723 5723 5722 5722 5722 5721 5721 5720
5607 5608 5608 5609 5609 5610 5611 5613 5615 5616 5618 5619 5621 5623 5625 5626 5627 5629 5631 5633 5634 5634 5635 5637 5641 5643 5645 5647 5648 5649 5651 5653 5655 5657 5658 5660 5661 5662 5663 5665 5666 5667 5667 5669 5671 5673 5675 5679 5683 5686 5690 5693 5696 5699 5702 5704 5705 5707 5708 5710 5711 5712 5714 5715 5715 5716 5717 5717 5718 5718 5718 5719 5719 5720 5720 5720 5720 5719 5719 5718 5718 5718 5717 5717 5716 5715